Weather History for Appleton, MN

Change the Weather History Date:

Tuesday, June 4, 2013

  Actual Average Record
Temperature  
Mean Temperature 62 °F -  
Max Temperature 68 °F 72 °F 93 °F (1999)
Min Temperature 55 °F 51 °F 39 °F (1998)
Degree Days  
Heating Degree Days 4    
Growing Degree Days 12 (Base 50)    
Moisture  
Dew Point 54 °F    
Average Humidity 78    
Maximum Humidity 88    
Minimum Humidity 48    
Precipitation  
Precipitation 0.24 in - - ()
Sea Level Pressure  
Sea Level Pressure 29.94 in    
Wind  
Wind Speed 14 mph (SE)    
Max Wind Speed 22 mph    
Max Gust Speed 29 mph    
Visibility 9 miles    
Events Rain , Thunderstorm    
Averages and records for this station are not official NWS values.
T = Trace of Precipitation, MM = Missing Value Source: NWS Daily Summary

Daily Weather History Graph

Daily Weather History Graph

Search for Another Location

Airport:

Trip Planner

Search our weather history database for the weather conditions in past years. The results will help you decide how hot, cold, wet, or windy it might be!

Date:

Astronomy

Jun. 04, 2013 Rise Set
Actual Time 5:38 AM CDT 9:07 PM CDT
Civil Twilight 5:01 AM CDT 9:44 PM CDT
Nautical Twilight 4:12 AM CDT 10:32 PM CDT
Astronomical Twilight 3:10 AM CDT 11:35 PM CDT
Moon 3:18 AM CDT (6/4) 5:29 PM CDT (6/4)
Length of Visible Light 16h 42m
Length of Day
15h 28m
Waning Crescent, 14% of the Moon is Illuminated
Jun 4
Waning Crescent
Jun 8
New
Jun 16
First Quarter
Jun 23
Full
Jun 29
Last Quarter

Hourly Weather History & Observations

Time (CDT) Temp. Dew Point Humidity Pressure Visibility Wind Dir Wind Speed Gust Speed Precip Events Conditions
12:13 AM 60.8 °F 42.8 °F 52% 29.89 in 10.0 mi ESE 18.4 mph 23.0 mph N/A   Clear
12:33 AM 60.8 °F 42.8 °F 52% 29.91 in 10.0 mi ESE 15.0 mph 21.9 mph N/A   Clear
12:53 AM 60.8 °F 42.8 °F 52% 29.92 in 10.0 mi ESE 18.4 mph - N/A Thunderstorm Thunderstorm
1:13 AM 62.6 °F 42.8 °F 48% 29.94 in 10.0 mi ESE 16.1 mph 21.9 mph N/A Thunderstorm Mostly Cloudy
1:33 AM 62.6 °F 44.6 °F 52% 30.00 in 10.0 mi North 9.2 mph 19.6 mph N/A Thunderstorm Mostly Cloudy
1:54 AM 60.8 °F 46.4 °F 59% 30.02 in 7.0 mi ENE 12.7 mph 25.3 mph 0.01 in Rain , Thunderstorm Heavy Thunderstorms and Rain
2:13 AM 57.2 °F 48.2 °F 72% 29.94 in 7.0 mi ESE 19.6 mph 28.8 mph 0.05 in Rain Heavy Rain
2:33 AM 57.2 °F 48.2 °F 72% 29.94 in 10.0 mi ESE 20.7 mph 27.6 mph 0.06 in   Overcast
2:54 AM 57.2 °F 48.2 °F 72% 29.92 in 10.0 mi ESE 18.4 mph 25.3 mph 0.06 in   Overcast
3:13 AM 59.0 °F 48.2 °F 67% 29.92 in 7.0 mi ESE 21.9 mph 27.6 mph 0.01 in Rain , Thunderstorm Thunderstorms and Rain
3:33 AM 57.2 °F 48.2 °F 72% 29.92 in 10.0 mi SE 21.9 mph 27.6 mph 0.10 in Rain Light Rain
3:54 AM 57.2 °F 48.2 °F 72% 29.93 in 10.0 mi ESE 16.1 mph 21.9 mph 0.14 in   Overcast
4:13 AM 59.0 °F 48.2 °F 67% 29.92 in 10.0 mi ESE 17.3 mph 24.2 mph N/A   Overcast
4:33 AM 59.0 °F 48.2 °F 67% 29.90 in 10.0 mi ESE 16.1 mph 21.9 mph N/A   Mostly Cloudy
4:53 AM 59.0 °F 48.2 °F 67% 29.89 in 10.0 mi ESE 13.8 mph 20.7 mph N/A   Scattered Clouds
5:13 AM 59.0 °F 48.2 °F 67% 29.88 in 10.0 mi ESE 15.0 mph 25.3 mph N/A   Scattered Clouds
5:33 AM 59.0 °F 48.2 °F 67% 29.87 in 10.0 mi SE 15.0 mph 24.2 mph N/A   Mostly Cloudy
5:53 AM 57.2 °F 48.2 °F 72% 29.88 in 10.0 mi SE 15.0 mph - N/A Rain Light Rain
6:13 AM 57.2 °F 50.0 °F 77% 29.89 in 10.0 mi SE 17.3 mph 20.7 mph N/A Rain Light Rain
6:34 AM 57.2 °F 51.8 °F 82% 29.90 in 10.0 mi SE 12.7 mph 21.9 mph N/A Rain , Thunderstorm Thunderstorms and Rain
6:53 AM 57.2 °F 51.8 °F 82% 29.92 in 10.0 mi SE 11.5 mph 18.4 mph 0.01 in Rain Light Rain
7:13 AM 55.4 °F 51.8 °F 88% 29.92 in 10.0 mi SE 9.2 mph - 0.01 in Rain Rain
7:33 AM 55.4 °F 51.8 °F 88% 29.93 in 10.0 mi ESE 6.9 mph - 0.02 in Rain Rain
7:53 AM 57.2 °F 53.6 °F 88% 29.93 in 10.0 mi ESE 8.1 mph - 0.02 in   Overcast
8:14 AM 57.2 °F 53.6 °F 88% 29.93 in 10.0 mi ESE 9.2 mph - N/A   Overcast
8:33 AM 57.2 °F 53.6 °F 88% 29.94 in 10.0 mi ESE 11.5 mph - N/A   Overcast
8:54 AM 57.2 °F 53.6 °F 88% 29.94 in 10.0 mi ESE 9.2 mph - N/A   Overcast
9:14 AM 57.2 °F 53.6 °F 88% 29.95 in 10.0 mi East 9.2 mph - N/A   Overcast
9:34 AM 59.0 °F 53.6 °F 82% 29.95 in 10.0 mi ESE 9.2 mph - N/A   Overcast
9:54 AM 59.0 °F 55.4 °F 88% 29.95 in 10.0 mi ESE 9.2 mph - N/A   Overcast
10:13 AM 59.0 °F 55.4 °F 88% 29.95 in 10.0 mi ESE 10.4 mph - N/A   Overcast
10:34 AM 59.0 °F 55.4 °F 88% 29.95 in 5.0 mi ESE 11.5 mph - N/A Rain Rain
10:53 AM 59.0 °F 55.4 °F 88% 29.95 in 7.0 mi ESE 10.4 mph - N/A   Overcast
11:13 AM 59.0 °F 55.4 °F 88% 29.96 in 5.0 mi ESE 10.4 mph 17.3 mph N/A   Overcast
11:34 AM 59.0 °F 55.4 °F 88% 29.96 in 3.0 mi SE 9.2 mph 16.1 mph N/A   Overcast
11:53 AM 59.0 °F 55.4 °F 88% 29.96 in 4.0 mi SSE 8.1 mph - N/A   Overcast
12:14 PM 60.8 °F 57.2 °F 88% 29.96 in 3.0 mi SE 12.7 mph - N/A Rain Light Rain
12:33 PM 60.8 °F 57.2 °F 88% 29.96 in 10.0 mi SE 9.2 mph - N/A   Overcast
12:53 PM 60.8 °F 57.2 °F 88% 29.95 in 10.0 mi SE 10.4 mph - N/A   Overcast
1:14 PM 62.6 °F 57.2 °F 82% 29.95 in 10.0 mi SE 10.4 mph 18.4 mph N/A   Overcast
1:34 PM 60.8 °F 57.2 °F 88% 29.95 in 10.0 mi SE 11.5 mph - N/A   Overcast
1:54 PM 62.6 °F 57.2 °F 82% 29.94 in 10.0 mi SE 12.7 mph 20.7 mph N/A   Overcast
2:13 PM 64.4 °F 57.2 °F 77% 29.94 in 10.0 mi SE 13.8 mph 20.7 mph N/A   Overcast
2:33 PM 62.6 °F 57.2 °F 82% 29.94 in 10.0 mi SE 13.8 mph 18.4 mph N/A   Overcast
2:53 PM 64.4 °F 57.2 °F 77% 29.94 in 10.0 mi SE 15.0 mph 21.9 mph N/A   Overcast
3:13 PM 66.2 °F 59.0 °F 78% 29.94 in 10.0 mi SE 15.0 mph 21.9 mph N/A   Overcast
3:33 PM 64.4 °F 57.2 °F 77% 29.93 in 10.0 mi SE 13.8 mph 20.7 mph N/A   Overcast
3:53 PM 66.2 °F 59.0 °F 78% 29.92 in 10.0 mi SE 15.0 mph 21.9 mph N/A   Mostly Cloudy
4:13 PM 66.2 °F 60.8 °F 83% 29.93 in 10.0 mi SE 13.8 mph 19.6 mph N/A   Mostly Cloudy
4:34 PM 68.0 °F 59.0 °F 73% 29.92 in 10.0 mi SE 17.3 mph - N/A   Mostly Cloudy
4:53 PM 66.2 °F 59.0 °F 78% 29.93 in 10.0 mi SE 15.0 mph - N/A   Mostly Cloudy
5:14 PM 66.2 °F 59.0 °F 78% 29.93 in 10.0 mi SE 15.0 mph 18.4 mph N/A   Overcast
5:33 PM 66.2 °F 59.0 °F 78% 29.94 in 10.0 mi SSE 15.0 mph 20.7 mph N/A   Mostly Cloudy
5:54 PM 66.2 °F 59.0 °F 78% 29.93 in 10.0 mi SE 15.0 mph 19.6 mph N/A   Overcast
6:13 PM 66.2 °F 59.0 °F 78% 29.93 in 10.0 mi SSE 17.3 mph 21.9 mph N/A   Overcast
6:33 PM 66.2 °F 57.2 °F 73% 29.93 in 10.0 mi SE 12.7 mph 19.6 mph N/A   Mostly Cloudy
6:53 PM 66.2 °F 59.0 °F 78% 29.93 in 10.0 mi SE 17.3 mph 23.0 mph N/A   Mostly Cloudy
7:14 PM 66.2 °F 59.0 °F 78% 29.93 in 10.0 mi SSE 13.8 mph 18.4 mph N/A   Mostly Cloudy
7:33 PM 64.4 °F 57.2 °F 77% 29.93 in 10.0 mi SE 16.1 mph 23.0 mph N/A   Mostly Cloudy
7:53 PM 64.4 °F 57.2 °F 77% 29.94 in 10.0 mi SE 11.5 mph - N/A   Mostly Cloudy
8:13 PM 62.6 °F 57.2 °F 82% 29.94 in 10.0 mi SE 12.7 mph - N/A   Overcast
8:33 PM 62.6 °F 57.2 °F 82% 29.94 in 10.0 mi SE 12.7 mph 18.4 mph N/A   Overcast
8:53 PM 62.6 °F 57.2 °F 82% 29.93 in 10.0 mi SE 12.7 mph 18.4 mph N/A   Overcast
9:13 PM 62.6 °F 57.2 °F 82% 29.94 in 10.0 mi SSE 9.2 mph 12.7 mph N/A   Overcast
9:34 PM 62.6 °F 57.2 °F 82% 29.95 in 10.0 mi SSE 10.4 mph 17.3 mph N/A Thunderstorm Overcast
9:53 PM 62.6 °F 57.2 °F 82% 29.95 in 10.0 mi SSE 12.7 mph 17.3 mph N/A   Overcast
10:13 PM 62.6 °F 57.2 °F 82% 29.96 in 10.0 mi SSE 8.1 mph - N/A   Overcast
10:34 PM 62.6 °F 57.2 °F 82% 29.96 in 10.0 mi South 6.9 mph - N/A   Overcast
10:53 PM 60.8 °F 57.2 °F 88% 29.95 in 10.0 mi SSE 10.4 mph 16.1 mph N/A   Scattered Clouds
11:13 PM 60.8 °F 57.2 °F 88% 29.95 in 10.0 mi South 8.1 mph - N/A   Clear
11:33 PM 60.8 °F 57.2 °F 88% 29.96 in 10.0 mi South 9.2 mph - N/A   Scattered Clouds
11:53 PM 60.8 °F 57.2 °F 88% 29.96 in 10.0 mi SSW 6.9 mph - N/A   Mostly Cloudy